Weather in Bykivka

Ukraine / Zhytomyr Region     50°17′28″N   27°59′09″E
temp.,
°C
wind,
m/s
gust,
m/s
humid.,
%
clouds,
%
prec.,
mm/h
press.,
hPa
HPBL,
m
7 may, fri
fri700:00+7ssw356598 0.0 101390
03:00+5ssw388053 0.0 1013136
06:00+5s3588100 0.0 1012105
09:00+10ssw5970100 0.0 1011476
12:00+14s71259100 0.0 10081748
15:00+15sw81169100 0.8 10071253
18:00+12sw5985100 0.6 1006687
21:00+10ssw2393100 1.2 100651
8 may, sat
sat800:00+10wnw1298100 4.8 100643
03:00+9wnw4996100 7.2 1007475
06:00+6wnw81292100 0.6 10091066
09:00+5wnw7128427 1.1 1012967
12:00+5w81486100 0.2 10141233
15:00+7wnw9137684 0.3 10151148
18:00+6nw5107964 0.1 10181020
21:00+4nw612785 0.1 1020741
9 may, sun
sun900:00+2wnw411875 0.0 1022311
03:00+1wnw38920 0.0 1023161
06:000w37920 0.0 1025138
09:00+7wnw46670 0.0 1025571
12:00+12wnw45485 0.0 10251561
15:00+13nw344127 0.0 10252058
18:00+13wnw234213 0.0 10251876
21:00+8ese11614 0.0 102610
10 may, mon
mon1000:00+6sse33665 0.0 102729
03:00+5sse34685 0.0 102853
06:00+4se34735 0.0 102865
09:00+11se46575 0.0 1028383
12:00+15se56454 0.0 10271381
15:00+17se45430 0.0 10261481
18:00+16se44510 0.0 10251375
21:00+10ese49750 0.0 1026150
11 may, tue
tue1100:00+7ese39780 0.0 1027158
03:00+6se36790 0.0 102683
06:00+5ese35810 0.0 102679
09:00+12e46610 0.0 1025427
12:00+16e45480 0.0 1023875
15:00+19e45500 0.0 10221093
18:00+19e46590 0.0 10201077
21:00+13e412840 0.0 1020306